Regional Weather Roundup
Issued by NWS

Home | Current Version | Previous Version | Text Only | Print | Product List | Glossary On
Versions: 1 2 3 4 5 6 7 8 9 10 11 12 13 14 15 16 17 18 19 20 21 22 23 24 25 26 27 28 29 30 31 32 33 34 35 36 37 38 39 40 41 42 43 44 45 46 47 48 49 50
000
ASUS43 KMKX 290000
RWRWI

WISCONSIN REGIONAL WEATHER ROUNDUP
NATIONAL WEATHER SERVICE MILWAUKEE/SULLIVAN WI
700 PM CDT SAT MAY 28 2016

NOTE: "FAIR" INDICATES FEW OR NO CLOUDS BELOW 12,000 FEET WITH NO
SIGNIFICANT WEATHER AND/OR OBSTRUCTIONS TO VISIBILITY.

WIZ001-002-006>008-014>016-023>028-290100-
NORTHWEST WISCONSIN

CITY           SKY/WX    TMP DP  RH WIND       PRES   REMARKS
SUPERIOR ARPT  CLOUDY    51  51 100 NE3       29.81S FOG
ASHLAND        LGT RAIN  57  55  93 CALM      29.81R
6HR MIN TEMP:  57; 6HR MAX TEMP:  65; 6HR PCP:  0.05;

HAYWARD        CLOUDY    66  60  81 N9        29.79S
6HR MIN TEMP:  66; 6HR MAX TEMP:  72;

SIREN          DRIZZLE   63  61  94 NE7       29.78F
CUMBERLAND     LGT RAIN  63  61  94 N8        29.77F
RICE LAKE      LGT RAIN  61  58  90 CALM      29.78R
CHETEK         HVY RAIN  63  61  93 SW3       29.77R VSB 3/4
LADYSMITH      CLOUDY    73  61  65 CALM      29.78F
EAU CLAIRE     LGT RAIN  67  58  72 W13G28    29.78R
MENOMONIE      LGT RAIN  66  64  94 CALM      29.76F
NEW RICHMOND   CLOUDY    65  63  92 N5        29.77R
OSCEOLA        CLOUDY    65  65 100 N5        29.79S
$$

WIZ003>005-009-010-017-018-290100-
NORTH CENTRAL WISCONSIN

CITY           SKY/WX    TMP DP  RH WIND       PRES   REMARKS
MANITOWISH WTR NOT AVBL
ARBOR VITAE    MOSUNNY   69  66  90 W3        29.81F
WOODRUFF       MOSUNNY   69  66  90 W3        29.81F
RHINELANDER    PTSUNNY   74  62  66 W5        29.82R
6HR MIN TEMP:  68; 6HR MAX TEMP:  75; 6HR PCP:  0.10;

EAGLE RIVER      N/A     69  63  81 W9        29.82R
LAND O LAKES   CLOUDY    66  65  94 SW5       29.83R
PHILLIPS       PTSUNNY   69  65  86 SW3       29.79S
6HR MIN TEMP:  64; 6HR MAX TEMP:  72; 6HR PCP:  0.83;

TOMAHAWK       CLOUDY    73  61  65 SW6       29.81S
MEDFORD        CLOUDY    74  62  67 S8        29.79S
MERRILL        MOSUNNY   73  67  82 SW6       29.81S
$$

WIZ029-030-035-036-043>047-290100-
CENTRAL WISCONSIN

CITY           SKY/WX    TMP DP  RH WIND       PRES   REMARKS
WAUSAU         PTSUNNY   76  60  57 S3        29.79R
6HR MIN TEMP:  72; 6HR MAX TEMP:  80; 6HR PCP:  0.01;

MOSINEE        SUNNY     72  57  60 S6        29.80S
MARSHFIELD     CLOUDY    75  59  57 S8        29.79S
6HR MIN TEMP:  73; 6HR MAX TEMP:  79; 6HR PCP: TRACE;

STEVENS POINT  CLOUDY    74  59  58 SW6       29.80S
WAUPACA        MOSUNNY   79  64  59 S7        29.80R HX  81
WAUTOMA        LGT RAIN  76  64  66 SE5       29.80S
6HR MIN TEMP:  75; 6HR MAX TEMP:  82; 6HR PCP: TRACE;

WISC RAPIDS    CLOUDY    72  64  76 CALM      29.80S
6HR MIN TEMP:  72; 6HR MAX TEMP:  81;

CAMP DOUGLAS   CLOUDY    68  68 100 SE9       29.80R
$$

WIZ011>013-019>022-031-037>040-048>050-290100-
NORTHEAST WISCONSIN

CITY           SKY/WX    TMP DP  RH WIND       PRES   REMARKS
ANTIGO         MOSUNNY   74  61  64 S10       29.83R
SHAWANO        PTSUNNY   82  63  52 S5        29.80S HX  83
OCONTO         MOSUNNY   73  68  85 S9        29.81R
STURGEON BAY   NOT AVBL
GREEN BAY      SUNNY     80  63  55 S13G22    29.82R HX  81
6HR MIN TEMP:  76; 6HR MAX TEMP:  81;

MANITOWOC      NOT AVBL
APPLETON       PTSUNNY   79  61  53 S18       29.80R HX  80
CLINTONVILLE   PTSUNNY   79  61  53 S8        29.80R HX  80
OSHKOSH        SUNNY     77  63  61 S10       29.81S
6HR MIN TEMP:  75; 6HR MAX TEMP:  81;

$$

WIZ032>034-041-042-053>061-290100-
SOUTHWEST WISCONSIN

CITY           SKY/WX    TMP DP  RH WIND       PRES   REMARKS
LA CROSSE      CLOUDY    73  62  68 S12       29.77R
6HR MIN TEMP:  70; 6HR MAX TEMP:  80; 6HR PCP: TRACE;

SPARTA         CLOUDY    67  64  91 SE6       29.80R
VIROQUA        CLOUDY    69  65  86 SW6       29.80S
BOSCOBEL       LGT RAIN  70  66  87 VRB3      29.81R
6HR MIN TEMP:  69; 6HR MAX TEMP:  83; 6HR PCP:  0.20;

PRAIRIE DU CHI MOSUNNY   71  61  70 S3        29.79S
PLATTEVILLE    CLOUDY    66  65  96 S8G29     29.83R VSB 1
$$

WIZ056-057-062-063-064-067-068-290100-
SOUTH CENTRAL WISCONSIN

CITY           SKY/WX    TMP DP  RH WIND       PRES   REMARKS
REEDSBURG      CLOUDY    70  64  82 W8        29.80R
BARABOO/DELLS  CLOUDY    70  62  75 S9        29.82R
LONE ROCK      NOT AVBL
MINERAL POINT  NOT AVBL
MADISON        TSTM      67  60  78 SW16G31   29.84R
6HR MIN TEMP:  67; 6HR MAX TEMP:  83; 6HR PCP:  0.15;

MIDDLETON      CLOUDY    66  63  87 W13G28    29.85R
WATERTOWN      SUNNY     80  64  58 S15       29.81F HX  81
MONROE         LGT RAIN  72  63  73 SW22G30   29.84R
JANESVILLE     PTSUNNY   82  57  42 S14G22    29.81S HX  82
$$

WIZ051-052-058>065-066-070>072-290100-
SOUTHEAST WISCONSIN

CITY           SKY/WX    TMP DP  RH WIND       PRES   REMARKS
MILWAUKEE      MOSUNNY   76  63  64 SE10      29.86R
6HR MIN TEMP:  75; 6HR MAX TEMP:  82;

WAUKESHA       MOSUNNY   79  61  53 S9G21     29.86S HX  80
MILWAUKEE/TIMM SUNNY     79  59  50 S14G20    29.86R HX  80
RACINE         SUNNY     73  60  63 S10       29.89R
6HR MIN TEMP:  71; 6HR MAX TEMP:  80;

BURLINGTON     SUNNY     80  62  53 S12G17    29.85S HX  81
KENOSHA        SUNNY     80  64  58 S10       29.87R HX  82
6HR MIN TEMP:  75; 6HR MAX TEMP:  82;

FOND DU LAC    SUNNY     79  64  60 S12       29.82S HX  81
6HR MIN TEMP:  76; 6HR MAX TEMP:  82;

SHEBOYGAN      SUNNY     72  62  71 S15G24    29.86R
6HR MIN TEMP:  72; 6HR MAX TEMP:  77;

WEST BEND      SUNNY     79  61  53 S16       29.85R HX  80
JUNEAU         SUNNY     77  64  63 SE13      29.83F
$$

LSZ147-162-290100-
LAKE SUPERIOR

STATION/POSITION TIME  TEMP    WIND        PRES    WAVE
                       AIR SEA DIR/SP/G            HT/PER
                 (UTC) (F)     (DEG/KT/KT) (MB)    (FT/S)
W MID LAKE BUOY  2250   42 38   20/  2/  6 1008.8R   1/ 4
DEVILS ISLAND    2300   45     250/  4/  5 1009.8R
PORT WING        2300   47      40/  1/  2 1009.8
SAXON HARBOR     2300   49     130/  2/  2 1009.1
$$

LMZ867-665-643>646-290100-
LAKE MICHIGAN

STATION/POSITION TIME  TEMP    WIND        PRES    WAVE
                       AIR SEA DIR/SP/G            HT/PER
                 (UTC) (F)     (DEG/KT/KT) (MB)    (FT/S)
CHAMBERS ISLAND  2340   70     150/  7/ 14 1010.2R
N MID LAKE BUOY  2250   54 47  180/ 16/ 17 1010.3F   4/ 5
NORTHPORT PIER   2300   63     150/  9/ 14 1010.5S
SISTER BAY       2305   71     190/ 18/ 23   N/A
ALGOMA LAKESHORE 2347          210/ 10/ 12   N/A
KEWAUNEE LAKESHO 2300   54     180/ 13/ 14   N/A
SHEBOYGAN LAKESH 2300   58     180/ 19/ 20 1011.1R
PORT WASHINGTON  2300   61     200/  6/ 12 1011.9R
S MID LAKE BUOY  2250   57 50  160/ 12/ 12 1012.1F   1/ 4
KENOSHA   LAKESH 2300   61     170/ 11/ 14 1011.5S
$$

TC  - TEMPERATURE IN CELSIUS
VSB - VISIBILITY IN STATUTE MILES
WCI - WIND CHILL INDEX
HX  - HEAT INDEX




USA.gov is the U.S. government's official web portal to all federal, state and local government web resources and services.